GW5653 Weather Reports


time (UTC)temp
F
wind
direction
speed
knots
gust
knots
rain 1hr
in
rain 24hr
in
rain mn
in
humidity
%
barometer
mb
20260504160349 73 79 1.7 3.5 0.00 0.00 0.00 38
20260504150814 71 194 2.6 7.8 0.00 0.00 0.00 41
20260504150310 71 186 2.6 3.5 0.00 0.00 0.00 39
20260504141241 69 160 1.7 3.5 0.00 0.00 0.00 45
20260504140737 68 127 1.7 2.6 0.00 0.00 0.00 45
20260504140233 67 148 1.7 1.7 0.00 0.00 0.00 46
20260504130701 59 268 3.5 6.1 0.00 0.00 0.00 52
20260504130157 59 130 0.9 6.1 0.00 0.00 0.00 54
20260504120121 57 152 0.0 1.7 0.00 0.00 0.00 54
20260504110549 45 183 0.9 0.9 0.00 0.00 0.00 82
20260504100510 43 219 1.7 1.7 0.00 0.00 0.00 89
20260504081904 45 174 0.9 1.7 0.00 0.00 0.00 80
20260504081400 44 225 0.9 0.9 0.00 0.00 0.00 82
20260504080856 44 159 0.0 0.0 0.00 0.00 0.00 83
20260504080354 44 168 0.0 0.9 0.00 0.00 0.00 83
20260504070321 44 155 0.0 0.0 0.00 0.00 0.00 84
20260504060241 44 153 0.0 0.0 0.00 0.00 0.00 85
20260504050709 43 163 0.0 0.0 0.00 0.00 0.00 86
20260504050206 43 159 0.0 0.0 0.00 0.00 0.00 86
20260504045703 43 155 0.0 0.0 0.00 0.00 0.00 86
20260504045157 44 168 0.0 0.0 0.00 0.00 0.00 86
20260504044655 44 175 0.0 0.0 0.00 0.00 0.00 86
20260504044152 44 178 0.0 0.9 0.00 0.00 0.00 85
20260504043649 43 230 1.7 1.7 0.00 0.00 0.00 86
20260504043146 43 215 1.7 1.7 0.00 0.00 0.00 85
20260504042644 43 151 0.0 0.0 0.00 0.00 0.00 83
20260504042140 43 148 0.0 0.0 0.00 0.00 0.00 83
20260504041636 43 154 0.0 0.0 0.00 0.00 0.00 84
20260504041132 43 136 0.9 0.9 0.00 0.00 0.00 84
20260504040629 43 155 0.0 0.0 0.00 0.00 0.00 83
20260504040126 42 112 1.7 1.7 0.00 0.00 0.00 83
20260504035623 42 149 0.0 0.9 0.00 0.00 0.00 86
20260504035119 42 130 0.9 0.9 0.00 0.00 0.00 87
20260504034618 42 138 0.9 0.9 0.00 0.00 0.00 88
20260504034114 42 117 0.9 0.9 0.00 0.00 0.00 89
20260504033612 41 127 0.9 0.9 0.00 0.00 0.00 89
20260504033109 41 166 0.0 0.0 0.00 0.00 0.00 89
20260504032606 41 166 0.0 0.0 0.00 0.00 0.00 88
20260504032103 41 167 0.0 0.0 0.00 0.00 0.00 88
20260504031600 41 175 0.0 0.9 0.00 0.00 0.00 87
20260504031056 41 185 0.0 0.9 0.00 0.00 0.00 90
20260504030553 41 172 0.0 1.7 0.00 0.00 0.00 89
20260504030049 40 196 0.9 0.9 0.00 0.00 0.00 91
20260504025547 39 111 0.9 1.7 0.00 0.00 0.00 91
20260504025043 39 156 0.0 0.0 0.00 0.00 0.00 92
20260504024540 39 160 0.0 0.0 0.00 0.00 0.00 93
20260504024037 38 161 0.0 0.0 0.00 0.00 0.00 92
20260504023534 39 160 0.0 0.0 0.00 0.00 0.00 91
20260504023030 39 160 0.0 0.0 0.00 0.00 0.00 91
20260504022526 40 157 0.0 0.0 0.00 0.00 0.00 90
20260504022022 41 156 0.0 0.0 0.00 0.00 0.00 89
20260504021520 41 149 0.0 0.0 0.00 0.00 0.00 88
20260504021017 41 149 0.0 0.0 0.00 0.00 0.00 85
20260504020514 41 153 0.0 0.0 0.00 0.00 0.00 83
20260504020010 42 153 0.0 0.0 0.00 0.00 0.00 81
20260504015507 43 149 0.0 0.0 0.00 0.00 0.00 81
20260504015002 42 141 0.9 0.9 0.00 0.00 0.00 81
20260504014459 43 157 0.0 0.0 0.00 0.00 0.00 82
20260504013955 43 152 0.0 0.0 0.00 0.00 0.00 79
20260504013454 43 168 0.0 0.0 0.00 0.00 0.00 76
20260504012949 44 163 0.0 0.0 0.00 0.00 0.00 77
20260504012448 44 169 0.0 0.9 0.00 0.00 0.00 77
20260504011946 44 164 0.0 0.0 0.00 0.00 0.00 79
20260504011442 45 167 0.0 0.0 0.00 0.00 0.00 78
20260504010938 45 175 0.0 0.0 0.00 0.00 0.00 78
20260504010434 45 165 0.0 0.0 0.00 0.00 0.00 70
20260504005930 46 162 0.0 0.0 0.00 0.00 0.00 73
20260504005427 46 167 0.0 0.0 0.00 0.00 0.00 74
20260504004924 46 173 0.0 0.0 0.00 0.00 0.00 73
20260504004422 47 162 0.0 0.0 0.00 0.00 0.00 68
20260504003919 48 159 0.0 0.0 0.00 0.00 0.00 68
20260504003415 49 169 0.0 0.0 0.00 0.00 0.00 68
20260504002912 50 161 0.0 0.0 0.00 0.00 0.00 58
20260504002409 51 144 0.0 0.9 0.00 0.00 0.00 63
20260504001907 52 160 0.0 0.0 0.00 0.00 0.00 55
20260504001404 53 180 0.0 0.9 0.00 0.00 0.00 56
20260504000900 53 173 0.0 0.0 0.00 0.00 0.00 56
20260504000357 54 168 0.0 0.9 0.00 0.00 0.00 55
20260503235855 55 167 0.0 0.9 0.00 0.00 0.00 51
20260503235353 56 162 0.0 0.9 0.00 0.00 0.00 47
20260503234849 57 160 0.0 0.0 0.00 0.00 0.00 43
20260503234347 58 212 0.9 1.7 0.00 0.00 0.00 40
20260503233845 59 208 0.9 1.7 0.00 0.00 0.00 41
20260503233341 62 202 1.7 1.7 0.00 0.00 0.00 36
20260503232837 62 193 2.6 2.6 0.00 0.00 0.00 31
20260503232335 62 236 1.7 5.2 0.00 0.00 0.00 35
20260503231833 63 230 2.6 5.2 0.00 0.00 0.00 30
20260503231330 64 219 1.7 2.6 0.00 0.00 0.00 31
20260503230825 63 233 2.6 3.5 0.00 0.00 0.00 28
20260503230322 63 216 0.9 2.6 0.00 0.00 0.00 31
20260503225820 63 164 5.2 7.8 0.00 0.00 0.00 28
20260503225316 62 172 1.7 6.1 0.00 0.00 0.00 29
20260503224812 62 250 7.0 7.8 0.00 0.00 0.00 29
20260503224310 63 301 3.5 7.0 0.00 0.00 0.00 29
20260503223807 64 237 4.3 5.2 0.00 0.00 0.00 30
20260503223305 64 222 3.5 5.2 0.00 0.00 0.00 29
20260503222800 65 172 2.6 5.2 0.00 0.00 0.00 30
20260503222259 63 253 3.5 3.5 0.00 0.00 0.00 31
20260503221757 64 105 1.7 2.6 0.00 0.00 0.00 31
20260503221254 64 245 2.6 6.1 0.00 0.00 0.00 29
20260503220751 64 150 2.6 3.5 0.00 0.00 0.00 29
20260503220248 63 239 3.5 6.1 0.00 0.00 0.00 30
20260503215744 64 250 7.8 8.7 0.00 0.00 0.00 28
20260503215242 65 226 7.0 7.8 0.00 0.00 0.00 28
20260503214740 64 238 3.5 6.1 0.00 0.00 0.00 29
20260503214236 66 250 5.2 7.0 0.00 0.00 0.00 29
20260503213734 64 180 2.6 2.6 0.00 0.00 0.00 28
20260503213231 63 233 1.7 5.2 0.00 0.00 0.00 31
20260503212728 63 223 2.6 6.1 0.00 0.00 0.00 30
20260503212226 64 257 7.0 8.7 0.00 0.00 0.00 29
20260503211723 63 252 3.5 8.7 0.00 0.00 0.00 28
20260503211219 63 255 7.0 13.0 0.00 0.00 0.00 29
20260503210715 63 246 5.2 7.0 0.00 0.00 0.00 30
20260503210212 62 192 6.1 9.6 0.00 0.00 0.00 29
20260503205707 62 65 1.7 7.0 0.00 0.00 0.00 29
20260503205204 62 64 3.5 9.6 0.00 0.00 0.00 30
20260503204700 62 285 6.1 7.8 0.00 0.00 0.00 31
20260503204158 62 16 5.2 8.7 0.00 0.00 0.00 29
20260503203655 63 2 7.8 8.7 0.00 0.00 0.00 28
20260503203153 62 217 0.0 2.6 0.00 0.00 0.00 28
20260503202649 63 229 6.1 7.0 0.00 0.00 0.00 29
20260503202148 62 227 3.5 5.2 0.00 0.00 0.00 30
20260503201646 62 188 2.6 7.8 0.00 0.00 0.00 30
20260503201143 62 337 4.3 11.3 0.00 0.00 0.00 28
20260503200638 61 177 7.8 15.6 0.00 0.00 0.00 30
20260503200135 61 348 3.5 3.5 0.00 0.00 0.00 30
20260503195632 62 207 7.8 11.3 0.00 0.00 0.00 29
20260503195129 61 130 4.3 7.0 0.00 0.00 0.00 30
20260503194626 61 219 5.2 7.0 0.00 0.00 0.00 31
20260503194121 63 275 7.8 13.0 0.00 0.00 0.00 31
20260503193619 63 204 6.1 8.7 0.00 0.00 0.00 31
20260503193114 63 188 3.5 7.0 0.00 0.00 0.00 30
20260503192610 62 177 2.6 2.6 0.00 0.00 0.00 29
20260503192106 62 281 2.6 7.8 0.00 0.00 0.00 30
20260503191603 61 235 2.6 7.8 0.00 0.00 0.00 32
20260503191059 61 242 7.0 12.2 0.00 0.00 0.00 32
20260503190556 61 256 10.4 13.0 0.00 0.00 0.00 31
20260503190054 59 243 4.3 6.1 0.00 0.00 0.00 33
20260503185550 60 260 7.8 11.3 0.00 0.00 0.00 33
20260503185050 64 250 4.3 6.1 0.00 0.00 0.00 33
20260503184546 63 96 0.9 1.7 0.00 0.00 0.00 31
20260503184043 60 143 0.9 5.2 0.00 0.00 0.00 33
20260503183539 61 138 3.5 6.1 0.00 0.00 0.00 33
20260503183037 59 170 0.0 5.2 0.00 0.00 0.00 32
20260503182535 59 253 6.1 13.0 0.00 0.00 0.00 34
20260503182033 60 261 5.2 7.0 0.00 0.00 0.00 33
20260503181529 59 214 3.5 5.2 0.00 0.00 0.00 33
20260503181025 59 251 6.1 7.0 0.00 0.00 0.00 33
20260503180523 58 42 5.2 7.0 0.00 0.00 0.00 34
20260503180020 59 233 8.7 13.0 0.00 0.00 0.00 36
20260503175518 59 175 4.3 11.3 0.00 0.00 0.00 35
20260503175014 57 279 7.8 14.8 0.00 0.00 0.00 36
20260503174512 59 208 1.7 9.6 0.00 0.00 0.00 36
20260503174008 57 160 0.0 2.6 0.00 0.00 0.00 36
20260503173503 57 284 7.0 8.7 0.00 0.00 0.00 36
20260503173000 56 263 6.1 7.8 0.00 0.00 0.00 39
20260503172457 56 235 5.2 9.6 0.00 0.00 0.00 37
20260503171954 56 268 6.1 13.0 0.00 0.00 0.00 38
20260503171450 55 252 7.0 8.7 0.00 0.00 0.00 37
20260503170948 55 247 5.2 18.2 0.00 0.00 0.00 39
20260503170444 56 259 7.8 13.9 0.00 0.00 0.00 38